[[{"header":{"parameterUnit":"m.s-1","parameterCategory":1,"la1":30.2991,"la2":30.254,"lo1":-89.0895,"lo2":-89.0444,"dy":0.0017,"dx":0.0017,"nx":28,"ny":28,"refTime":"2026-02-25T09:00:00:Z","depth":0,"parameterNumber":2,"parameterNumberName":"U-component_of_WINDS"},"data":[0,0,0,0,0,0,0,0,0,0,0,0,0,0,0,0,0,0,0,0,0,0,0,0,0,0,0,0,0,0,0,0,0,0,0,0,0,0,0,0,0,0,0,0,0,0,0,0,0,0,0,0,0,0,0,0,0,0,-1.3872,-1.3872,0,-1.3841,-1.384,-1.384,-1.3776,-1.3775,-1.3774,-1.3772,-1.3742,-1.3742,-1.3742,0,0,0,0,0,0,0,0,0,0,0,0,0,-1.3876,-1.3876,-1.3872,-1.3872,-1.3871,-1.3841,-1.384,-1.384,-1.3776,-1.3775,-1.3773,-1.3772,-1.3741,-1.3742,-1.3742,0,0,0,0,0,0,0,0,0,0,0,0,0,-1.3863,-1.3877,-1.3872,-1.3836,-1.3832,-1.3841,-1.384,-1.384,-1.3777,-1.3775,-1.3773,-1.3771,-1.3741,-1.3742,-1.3742,-1.3784,0,0,-1.3744,-1.3744,0,0,0,0,0,0,0,0,-1.3864,-1.3863,-1.3841,-1.3838,-1.3834,-1.381,-1.3831,-1.3821,-1.3777,-1.3798,-1.3772,-1.377,-1.3766,-1.3764,-1.3763,-1.3783,-1.3781,-1.3744,-1.3744,-1.3745,-1.3745,0,0,0,0,0,0,0,-1.3865,-1.3864,-1.386,-1.3841,-1.3837,-1.3821,-1.3817,-1.3829,-1.3793,-1.3796,-1.3791,-1.3788,-1.3764,-1.3763,-1.3762,-1.3781,-1.3744,-1.3745,-1.3745,-1.3745,-1.3831,-1.3833,0,0,0,0,0,0,-1.3871,-1.3865,-1.3861,-1.3859,-1.3844,-1.3823,-1.3818,-1.382,-1.3793,-1.3787,-1.379,-1.3785,-1.3763,-1.3761,-1.376,-1.3805,-1.3745,-1.3745,-1.3746,-1.3829,-1.3832,-1.3834,0,0,0,0,0,0,-1.3871,-1.3871,-1.3862,-1.386,-1.3858,-1.3824,-1.3827,-1.382,-1.3819,-1.3788,-1.3782,-1.3795,-1.3761,-1.376,-1.3778,-1.3803,-1.3745,-1.3746,-1.3827,-1.383,-1.3833,-1.3897,0,0,0,0,0,0,-1.3872,-1.3871,-1.3887,-1.3861,-1.3858,-1.388,-1.3829,-1.3821,-1.382,-1.3814,-1.3791,-1.3786,-1.3759,-1.3778,-1.3779,-1.3803,-1.3746,-1.3825,-1.3828,-1.3832,-1.3893,-1.3902,-1.391,0,0,0,0,0,-1.3872,-1.3907,-1.3888,-1.3888,-1.3877,-1.3882,-1.388,-1.3849,-1.3822,-1.3837,-1.3818,-1.3787,-1.3801,-1.378,-1.3781,-1.3806,-1.3823,-1.3827,-1.3832,-1.3889,-1.39,-1.391,0,0,0,0,0,0,-1.3937,-1.3903,-1.3882,-1.391,-1.3899,-1.3871,-1.3889,-1.3862,-1.3859,-1.3853,-1.3815,-1.381,-1.3833,-1.3822,-1.3799,-1.3844,-1.3807,-1.3812,-1.385,-1.3861,-1.3869,-1.387,-1.3747,0,0,0,0,0,-1.3955,-1.3961,-1.3931,-1.3959,-1.3955,-1.3923,-1.3924,-1.3901,-1.3888,-1.3884,-1.3865,-1.3854,-1.3856,-1.3858,-1.3859,-1.3891,-1.3884,-1.3909,-1.3918,-1.3925,-1.3929,-1.3943,-1.3953,-1.3848,-1.3848,-1.3848,0,0,-1.3991,-1.3973,-1.398,-1.3972,-1.3961,-1.3968,-1.392,-1.393,-1.3935,-1.3885,-1.39,-1.3887,-1.3873,-1.3898,-1.3908,-1.3889,-1.3956,-1.3931,-1.3937,-1.3936,-1.3949,-1.3958,-1.3967,-1.3851,-1.3851,-1.385,0,0,-1.4061,-1.4049,-1.4069,-1.4059,-1.4043,-1.4021,-1.4027,-1.4003,-1.3991,-1.4006,-1.3969,-1.3974,-1.3979,-1.3969,-1.3965,-1.4031,-1.4001,-1.4032,-1.4077,-1.4091,-1.4099,-1.4106,-1.4127,-1.4136,-1.4037,-1.4037,-1.4037,0,-1.4108,-1.4117,-1.4083,-1.4095,-1.4092,-1.4047,-1.4067,-1.4059,-1.4044,-1.4043,-1.4022,-1.4025,-1.4013,-1.4034,-1.405,-1.4049,-1.4052,-1.4033,-1.4101,-1.4108,-1.4114,-1.4133,-1.4141,-1.404,-1.404,-1.404,-1.4039,0,-1.4175,-1.4182,-1.42,-1.4186,-1.4185,-1.4201,-1.4169,-1.4173,-1.415,-1.4131,-1.4146,-1.4129,-1.4124,-1.4128,-1.4106,-1.4146,-1.4134,-1.4108,-1.4069,-1.4128,-1.4145,-1.4153,-1.4046,-1.4044,-1.4043,-1.4042,0,0,-1.4283,-1.4249,-1.4256,-1.4248,-1.4227,-1.4232,-1.4246,-1.4241,-1.4243,-1.4235,-1.4244,-1.4249,-1.4224,-1.4219,-1.4196,-1.4209,-1.4259,-1.4181,-1.418,-1.4194,-1.4299,-1.4318,-1.4327,-1.4241,-1.4242,-1.4243,-1.43,0,-1.4346,-1.4366,-1.4336,-1.4364,-1.4369,-1.4327,-1.4339,-1.4327,-1.4309,-1.4311,-1.4292,-1.4295,-1.4263,-1.426,-1.4271,-1.4251,-1.4279,-1.4247,-1.4248,-1.4248,-1.425,-1.4336,-1.4356,-1.441,-1.4307,-1.4308,-1.4309,0,-1.4421,-1.4415,-1.4443,-1.4418,-1.4419,-1.4431,-1.4422,-1.4425,-1.4411,-1.4397,-1.4392,-1.4364,-1.4375,-1.434,-1.4354,-1.4332,-1.4331,-1.4321,-1.4323,-1.4319,-1.428,-1.4333,-1.4427,-1.4434,-1.432,-1.4319,-1.4318,0,-1.4494,-1.4493,-1.4509,-1.4504,-1.4477,-1.4485,-1.4474,-1.4458,-1.4456,-1.445,-1.4448,-1.4443,-1.444,-1.4437,-1.4408,-1.4385,-1.4425,-1.4388,-1.4412,-1.4413,-1.442,-1.442,-1.4513,-1.4425,-1.4425,-1.4424,-1.4424,0,-1.4566,-1.4584,-1.4541,-1.4551,-1.4569,-1.4535,-1.4554,-1.4539,-1.4525,-1.453,-1.4495,-1.4501,-1.4464,-1.4465,-1.4443,-1.4457,-1.4457,-1.4445,-1.4438,-1.4447,-1.4448,-1.4443,-1.4438,-1.4426,-1.4426,-1.4426,-1.4425,0,-1.4649,-1.4622,-1.4636,-1.4609,-1.4602,-1.4617,-1.4594,-1.4601,-1.4582,-1.4589,-1.4589,-1.4558,-1.4558,-1.453,-1.4525,-1.4509,-1.4532,-1.452,-1.4536,-1.4531,-1.4556,-1.4554,-1.4648,-1.4657,-1.4566,-1.4567,-1.4568,0,-1.4695,-1.4708,-1.4682,-1.4683,-1.4673,-1.4676,-1.4673,-1.464,-1.4639,-1.4623,-1.4632,-1.4629,-1.4625,-1.4627,-1.4604,-1.46,-1.4585,-1.4619,-1.4584,-1.4592,-1.4583,-1.4581,-1.4581,-1.4625,-1.4626,-1.4627,-1.4628,0,-1.4779,-1.4765,-1.4763,-1.4756,-1.4754,-1.4747,-1.4738,-1.4741,-1.4704,-1.4705,-1.4704,-1.4701,-1.4695,-1.4692,-1.4683,-1.4671,-1.4643,-1.464,-1.4644,-1.4652,-1.4659,-1.4653,-1.4553,-1.4637,-1.4636,-1.4635,-1.4635,-1.4635,-1.4844,-1.4852,-1.4835,-1.4833,-1.4823,-1.4815,-1.482,-1.48,-1.4799,-1.4791,-1.4772,-1.4774,-1.4758,-1.4743,-1.4734,-1.4734,-1.4718,-1.4726,-1.4727,-1.4729,-1.4732,-1.4662,-1.4733,-1.4733,-1.4733,-1.4732,-1.4732,0,-1.4923,-1.491,-1.4909,-1.4897,-1.4895,-1.487,-1.4858,-1.4858,-1.486,-1.4848,-1.4844,-1.4843,-1.4839,-1.4816,-1.481,-1.4815,-1.4802,-1.4814,-1.4812,-1.4809,-1.4749,-1.4744,-1.4825,-1.4825,-1.4825,-1.4825,-1.4825,-1.4825,-1.4965,-1.4977,-1.496,-1.4967,-1.4953,-1.4954,-1.4949,-1.4941,-1.4931,-1.4931,-1.4927,-1.4912,-1.4895,-1.4887,-1.4883,-1.4876,-1.4874,-1.4891,-1.4879,-1.4823,-1.4814,-1.4805,-1.48,-1.4891,-1.4891,-1.4939,-1.4939,-1.494]},{"header":{"parameterUnit":"m.s-1","parameterCategory":1,"la1":30.2991,"la2":30.254,"lo1":-89.0895,"lo2":-89.0444,"dy":0.0017,"dx":0.0017,"nx":28,"ny":28,"refTime":"2026-02-25T09:00:00:Z","depth":0,"parameterNumber":3,"parameterNumberName":"V-component_of_WINDS"},"data":[0,0,0,0,0,0,0,0,0,0,0,0,0,0,0,0,0,0,0,0,0,0,0,0,0,0,0,0,0,0,0,0,0,0,0,0,0,0,0,0,0,0,0,0,0,0,0,0,0,0,0,0,0,0,0,0,0,0,3.413,3.413,0,3.4138,3.4138,3.4138,3.4168,3.4169,3.417,3.4171,3.4178,3.4177,3.4177,0,0,0,0,0,0,0,0,0,0,0,0,0,3.4143,3.4142,3.413,3.413,3.413,3.4138,3.4138,3.4138,3.4168,3.4169,3.417,3.4171,3.4178,3.4177,3.4177,0,0,0,0,0,0,0,0,0,0,0,0,0,3.4142,3.4142,3.413,3.4146,3.4148,3.4138,3.4138,3.4138,3.4168,3.4169,3.417,3.4171,3.4178,3.4177,3.4177,3.4151,0,0,3.4175,3.4174,0,0,0,0,0,0,0,0,3.4142,3.4142,3.4144,3.4145,3.4147,3.4153,3.4145,3.4142,3.4168,3.416,3.4171,3.4172,3.4169,3.4169,3.4168,3.4152,3.4152,3.4175,3.4174,3.4174,3.4174,0,0,0,0,0,0,0,3.4142,3.4142,3.4133,3.4144,3.4146,3.4154,3.4155,3.4145,3.4158,3.4161,3.4163,3.4164,3.417,3.4169,3.4168,3.4152,3.4175,3.4174,3.4174,3.4173,3.4119,3.4118,0,0,0,0,0,0,3.414,3.4142,3.4133,3.4133,3.4147,3.4153,3.4154,3.415,3.4159,3.4161,3.4163,3.4165,3.4169,3.4169,3.4169,3.4142,3.4174,3.4173,3.4173,3.412,3.4119,3.4118,0,0,0,0,0,0,3.414,3.4139,3.4132,3.4138,3.4138,3.4151,3.4147,3.415,3.4149,3.416,3.4163,3.4159,3.417,3.417,3.4156,3.4143,3.4173,3.4172,3.4122,3.412,3.4119,3.4087,0,0,0,0,0,0,3.414,3.4139,3.4129,3.4138,3.4137,3.4119,3.4146,3.4149,3.4147,3.415,3.4157,3.4159,3.4171,3.4157,3.4156,3.4142,3.4172,3.4123,3.4121,3.4119,3.4089,3.4084,3.408,0,0,0,0,0,3.4141,3.4118,3.4128,3.4127,3.4125,3.4118,3.4118,3.4132,3.4146,3.4137,3.4145,3.4159,3.4144,3.4156,3.4154,3.414,3.4124,3.4121,3.4119,3.4091,3.4085,3.408,0,0,0,0,0,0,3.4106,3.412,3.413,3.411,3.4113,3.4123,3.4112,3.4125,3.4123,3.4126,3.4144,3.4145,3.413,3.4134,3.4146,3.4118,3.4137,3.4134,3.4116,3.4111,3.4106,3.4106,3.4171,0,0,0,0,0,3.4096,3.409,3.4102,3.4083,3.4084,3.4098,3.4095,3.4106,3.4109,3.4111,3.4117,3.412,3.4117,3.4114,3.4111,3.409,3.4093,3.408,3.4076,3.4072,3.407,3.4062,3.4057,3.411,3.4111,3.4111,0,0,3.4076,3.4082,3.4077,3.4076,3.408,3.4073,3.4098,3.4089,3.4085,3.4109,3.4098,3.4103,3.4108,3.4091,3.4084,3.4094,3.4056,3.4069,3.4066,3.4066,3.4059,3.4054,3.405,3.4109,3.4109,3.4109,0,0,3.4035,3.4038,3.4025,3.4028,3.4034,3.4044,3.404,3.405,3.4055,3.4043,3.4062,3.4058,3.405,3.4054,3.4054,3.4019,3.4033,3.4018,3.3995,3.3987,3.3983,3.3979,3.3969,3.3964,3.4015,3.4015,3.4015,0,3.4008,3.3999,3.4015,3.4007,3.4007,3.403,3.4017,3.402,3.4024,3.4024,3.4035,3.4028,3.4033,3.4019,3.4011,3.401,3.4008,3.4017,3.3982,3.3979,3.3976,3.3966,3.3961,3.4013,3.4013,3.4014,3.4014,0,3.3968,3.3961,3.3949,3.3955,3.3954,3.3942,3.3958,3.3955,3.3967,3.3976,3.3966,3.3973,3.3973,3.3971,3.3981,3.3959,3.3966,3.3979,3.3998,3.3968,3.396,3.3956,3.4011,3.4011,3.4012,3.4012,0,0,3.3903,3.392,3.3916,3.392,3.3929,3.3925,3.3916,3.3917,3.3916,3.3918,3.3913,3.3908,3.3921,3.3922,3.3934,3.3927,3.3902,3.3941,3.3942,3.3935,3.3881,3.3872,3.3867,3.3911,3.391,3.391,3.3881,0,3.3866,3.3852,3.3868,3.3851,3.3847,3.387,3.3863,3.3869,3.3878,3.3876,3.3886,3.3883,3.39,3.3901,3.3896,3.3906,3.3891,3.3908,3.3907,3.3907,3.3906,3.3862,3.3851,3.3824,3.3878,3.3877,3.3877,0,3.382,3.3823,3.3806,3.382,3.3819,3.3812,3.3816,3.3814,3.3822,3.3829,3.3832,3.3846,3.384,3.3859,3.3852,3.3863,3.3864,3.3869,3.3869,3.387,3.389,3.3863,3.3815,3.3811,3.3871,3.3871,3.3872,0,3.3778,3.3777,3.3768,3.377,3.3785,3.3781,3.3787,3.3796,3.3796,3.38,3.3802,3.3804,3.3806,3.3808,3.3824,3.3836,3.3816,3.3835,3.3823,3.3822,3.3817,3.3818,3.377,3.3816,3.3816,3.3816,3.3816,0,3.3735,3.3724,3.3749,3.3743,3.3733,3.3752,3.3742,3.375,3.3759,3.3756,3.3776,3.3773,3.3793,3.3793,3.3805,3.3799,3.3799,3.3806,3.3809,3.3805,3.3804,3.3806,3.3809,3.3815,3.3815,3.3816,3.3816,0,3.3686,3.3702,3.3693,3.371,3.3714,3.3705,3.372,3.3716,3.3727,3.3724,3.3724,3.3742,3.3743,3.3759,3.3763,3.3771,3.3761,3.3767,3.3758,3.3761,3.3749,3.375,3.3701,3.3697,3.3744,3.3744,3.3743,0,3.3658,3.365,3.3667,3.3667,3.3673,3.3672,3.3674,3.3693,3.3695,3.3705,3.37,3.3703,3.3707,3.3708,3.3721,3.3725,3.3733,3.3716,3.3734,3.373,3.3735,3.3736,3.3736,3.3712,3.3711,3.3711,3.3711,0,3.3607,3.3617,3.3619,3.3624,3.3626,3.3631,3.3638,3.3637,3.3659,3.3659,3.3661,3.3664,3.367,3.3673,3.3681,3.3688,3.3703,3.3705,3.3703,3.3698,3.3694,3.3698,3.375,3.3706,3.3706,3.3707,3.3707,3.3707,3.3569,3.3565,3.3577,3.3579,3.3587,3.3593,3.3591,3.3603,3.3606,3.3612,3.3624,3.3625,3.3636,3.3647,3.3654,3.3656,3.3664,3.366,3.366,3.3659,3.3657,3.3693,3.3657,3.3657,3.3657,3.3657,3.3657,0,3.3521,3.3531,3.3533,3.3543,3.3545,3.3561,3.357,3.3571,3.3572,3.3581,3.3585,3.3589,3.3593,3.3608,3.3614,3.3613,3.3621,3.3614,3.3615,3.3617,3.3648,3.365,3.3608,3.3608,3.3608,3.3608,3.3608,3.3608,3.3497,3.3492,3.3503,3.3502,3.3512,3.3514,3.3518,3.3525,3.3533,3.3536,3.3541,3.3551,3.3563,3.3571,3.3576,3.3581,3.3583,3.3574,3.3581,3.361,3.3614,3.3619,3.3621,3.3574,3.3574,3.3551,3.3551,3.355]}]]